Weather History for Meridian, MS

Change the Weather History Date:

Thursday, January 17, 2013

  Actual Average Record
Temperature  
Mean Temperature 39 °F 44 °F  
Max Temperature 46 °F 56 °F 80 °F (1943)
Min Temperature 32 °F 33 °F 10 °F (1977)
Degree Days  
Heating Degree Days 26 21  
Month to date heating degree days 287 350  
Since 1 July heating degree days 1243 1358  
Cooling Degree Days 0 0  
Month to date cooling degree days 11 0  
Year to date cooling degree days 11 0  
Moisture  
Dew Point 33 °F    
Average Humidity 83    
Maximum Humidity 100    
Minimum Humidity 65    
Precipitation  
Precipitation 0.10 in 0.17 in 3.40 in (1925)
Month to date precipitation 8.11 2.55  
Year to date precipitation 8.11 2.55  
Sea Level Pressure  
Sea Level Pressure 30.17 in    
Wind  
Wind Speed 9 mph (NW)    
Max Wind Speed 22 mph    
Max Gust Speed 30 mph    
Visibility 6 miles    
Events Rain , Snow    
T = Trace of Precipitation, MM = Missing Value Source: NWS Daily Summary

Daily Weather History Graph

Daily Weather History Graph

Search for Another Location

Airport:

Trip Planner

Search our weather history database for the weather conditions in past years. The results will help you decide how hot, cold, wet, or windy it might be!

Date:

Astronomy

Jan. 17, 2013 Rise Set
Actual Time 6:56 AM CST 5:14 PM CST
Civil Twilight 6:29 AM CST 5:41 PM CST
Nautical Twilight 5:59 AM CST 6:11 PM CST
Astronomical Twilight 5:30 AM CST 6:40 PM CST
Moon 10:27 AM CST (1/17) 11:38 PM CST (1/17)
Length of Visible Light 11h 11m
Length of Day
10h 18m
Waxing Crescent, 38% of the Moon is Illuminated
Jan 17
Waxing Crescent
Jan 18
First Quarter
Jan 26
Full
Feb 3
Last Quarter
Feb 10
New

Hourly Weather History & Observations

Time (CST) Temp. Windchill Dew Point Humidity Pressure Visibility Wind Dir Wind Speed Gust Speed Precip Events Conditions
12:18 AM 37.4 °F 32.1 °F 35.6 °F 93% 30.05 in 4.0 mi NW 6.9 mph - 0.01 in Rain Light Rain
12:25 AM 37.4 °F 32.8 °F 35.6 °F 93% 30.05 in 5.0 mi NNW 5.8 mph - 0.01 in Rain Light Rain
12:36 AM 37.4 °F 32.1 °F 35.6 °F 93% 30.05 in 7.0 mi NNW 6.9 mph - 0.01 in Rain Light Rain
12:44 AM 37.4 °F 33.8 °F 35.6 °F 93% 30.05 in 8.0 mi NNW 4.6 mph - 0.01 in Rain Light Rain
12:58 AM 37.0 °F 33.3 °F 36.0 °F 96% 30.05 in 8.0 mi WNW 4.6 mph - 0.01 in Rain Light Rain
1:49 AM 35.6 °F 29.9 °F 35.6 °F 100% 30.06 in 6.0 mi NW 6.9 mph - 0.00 in   Overcast
1:58 AM 36.0 °F 31.1 °F 35.1 °F 97% 30.06 in 6.0 mi WNW 5.8 mph - 0.00 in   Overcast
2:14 AM 35.6 °F 30.7 °F 35.6 °F 100% 30.05 in 5.0 mi WNW 5.8 mph - N/A   Overcast
2:58 AM 36.0 °F 28.0 °F 35.1 °F 97% 30.05 in 4.0 mi WNW 11.5 mph - 0.01 in   Overcast
3:58 AM 35.1 °F 27.4 °F 34.0 °F 96% 30.05 in 4.0 mi WNW 10.4 mph - N/A   Overcast
4:42 AM 35.6 °F 28.0 °F 33.8 °F 93% 30.05 in 9.0 mi WNW 10.4 mph - 0.01 in   Overcast
4:58 AM 35.1 °F 25.2 °F 33.1 °F 92% 30.06 in 5.0 mi WNW 16.1 mph 21.9 mph 0.01 in   Overcast
5:07 AM 33.8 °F 25.3 °F 33.8 °F 100% 30.06 in 4.0 mi WNW 11.5 mph 21.9 mph 0.00 in Snow Light Snow
5:39 AM 33.8 °F 23.2 °F 30.2 °F 87% 30.08 in 2.0 mi NW 17.3 mph 29.9 mph 0.01 in Snow Light Snow
5:44 AM 33.8 °F 24.3 °F 30.2 °F 87% 30.09 in 1.8 mi NW 13.8 mph 29.9 mph 0.01 in Snow Light Snow
5:51 AM 32.0 °F 20.5 °F 30.2 °F 93% 30.09 in 1.8 mi NW 18.4 mph 26.5 mph 0.01 in Snow Light Snow
5:54 AM 32.0 °F 21.2 °F 30.2 °F 93% 30.09 in 1.8 mi NW 16.1 mph 26.5 mph 0.01 in Snow Light Snow
5:58 AM 32.0 °F 20.8 °F 30.9 °F 96% 30.10 in 1.8 mi NW 17.3 mph 25.3 mph 0.01 in Snow Light Snow
6:07 AM 32.0 °F 21.2 °F 30.2 °F 93% 30.10 in 2.0 mi NW 16.1 mph 24.2 mph 0.00 in Snow Light Snow
6:42 AM 32.0 °F 23.6 °F 30.2 °F 93% 30.12 in 1.8 mi NW 10.4 mph - 0.00 in Snow Light Snow
6:56 AM 32.0 °F 23.0 °F 30.2 °F 93% 30.12 in 1.2 mi NW 11.5 mph 19.6 mph 0.01 in Snow Light Snow
6:58 AM 32.0 °F 23.6 °F 30.9 °F 96% 30.12 in 1.2 mi NW 10.4 mph 19.6 mph 0.01 in Snow Light Snow
7:16 AM 32.0 °F 24.2 °F 30.2 °F 93% 30.13 in 1.2 mi NW 9.2 mph - 0.01 in Snow Light Snow
7:27 AM 32.0 °F 22.5 °F 30.2 °F 93% 30.13 in 1.2 mi WNW 12.7 mph 17.3 mph 0.01 in Snow Light Snow
7:51 AM 32.0 °F 24.2 °F 30.2 °F 93% 30.14 in 0.8 mi WNW 9.2 mph - 0.01 in Snow Snow
7:58 AM 32.0 °F 23.0 °F 30.9 °F 96% 30.14 in 0.8 mi NW 11.5 mph - 0.02 in Snow Snow
8:36 AM 33.8 °F 24.8 °F 30.2 °F 87% 30.16 in 0.8 mi WNW 12.7 mph 23.0 mph 0.02 in Snow Snow
8:53 AM 33.8 °F 24.3 °F 32.0 °F 93% 30.17 in 1.8 mi NW 13.8 mph 19.6 mph 0.03 in Snow Snow
8:58 AM 33.1 °F 24.4 °F 32.0 °F 96% 30.17 in 2.5 mi NW 11.5 mph - 0.03 in Snow Snow
9:00 AM 33.8 °F 23.9 °F 32.0 °F 93% 30.17 in 3.0 mi NW 15.0 mph - 0.00 in Snow Snow
9:07 AM 33.8 °F 24.8 °F 32.0 °F 93% 30.17 in 3.0 mi NW 12.7 mph 20.7 mph 0.00 in Snow Snow
9:50 AM 35.6 °F 28.6 °F 33.8 °F 93% 30.19 in 9.0 mi WNW 9.2 mph - 0.00 in Snow Snow
9:58 AM 36.0 °F 28.5 °F 34.0 °F 93% 30.19 in 9.0 mi NW 10.4 mph - 0.00 in Snow Snow
10:03 AM 35.6 °F 27.5 °F 33.8 °F 93% 30.19 in 9.0 mi WNW 11.5 mph - 0.00 in Snow Snow
10:10 AM 35.6 °F 26.6 °F 33.8 °F 93% 30.19 in 9.0 mi NW 13.8 mph 19.6 mph 0.00 in Snow Snow
10:28 AM 37.4 °F 29.3 °F 33.8 °F 87% 30.19 in 10.0 mi NW 12.7 mph 20.7 mph 0.00 in Rain Light Rain
10:47 AM 37.4 °F 29.8 °F 35.6 °F 93% 30.20 in 10.0 mi WNW 11.5 mph 21.9 mph N/A   Overcast
10:58 AM 36.0 °F 28.0 °F 34.0 °F 93% 30.20 in 10.0 mi NW 11.5 mph - 0.00 in   Overcast
11:58 AM 37.9 °F 29.2 °F 35.1 °F 89% 30.20 in 10.0 mi NW 15.0 mph 20.7 mph 0.00 in   Overcast
12:55 PM 39.2 °F 33.6 °F 35.6 °F 87% 30.20 in 10.0 mi WNW 8.1 mph - N/A   Overcast
12:58 PM 39.0 °F 31.4 °F 35.1 °F 86% 30.21 in 10.0 mi WNW 12.7 mph 18.4 mph N/A   Overcast
1:58 PM 43.0 °F 36.4 °F 35.1 °F 74% 30.21 in 10.0 mi WNW 12.7 mph 23.0 mph N/A   Scattered Clouds
2:58 PM 44.1 °F 37.7 °F 34.0 °F 68% 30.22 in 10.0 mi NW 12.7 mph 25.3 mph N/A   Overcast
3:58 PM 46.0 °F 41.0 °F 35.1 °F 66% 30.26 in 10.0 mi NW 10.4 mph 17.3 mph N/A   Clear
4:58 PM 44.1 °F 39.0 °F 34.0 °F 68% 30.29 in 10.0 mi NW 9.2 mph - N/A   Clear
5:58 PM 41.0 °F 38.0 °F 34.0 °F 76% 30.34 in 10.0 mi NW 4.6 mph - N/A   Clear
6:58 PM 39.0 °F 35.7 °F 34.0 °F 82% 30.36 in 10.0 mi NW 4.6 mph - N/A   Clear
7:58 PM 37.9 °F 35.5 °F 34.0 °F 86% 30.38 in 10.0 mi NW 3.5 mph - N/A   Clear
8:58 PM 34.0 °F - 32.0 °F 92% 30.39 in 10.0 mi Calm Calm - N/A   Clear
9:58 PM 34.0 °F - 33.1 °F 96% 30.40 in 10.0 mi Calm Calm - N/A   Clear
10:58 PM 36.0 °F - 34.0 °F 93% 30.41 in 10.0 mi Calm Calm - N/A   Clear
11:58 PM 35.1 °F 31.0 °F 33.1 °F 92% 30.42 in 10.0 mi North 4.6 mph - N/A   Clear